When you browse on this site, cookies collect data to enhance your experience and personalize the content and advertising you see.
Visit our Privacy Policy to learn more. By continuing to use the site, you agree to this use of cookies and data.
  • Em Portugal
  • Lista de países
  • Para 7 dias
  • Temperatura da água
  • Mapas de satélite
  • Mapa do tempo
  • Widgets de tempo
  • user-avatar
    Iniciar Sessão

    Previsão horária em Cierznie

    Hoje, 23 Fevereiro, Sábado

    Tempo Temperatura Precipitação Vento Pressão Humidade
    00:00 -2°C° 0 mm 1 m/s 771 mmHg 51%
    01:00 -2°C° 0 mm 1 m/s 772 mmHg 49%
    02:00 -2°C° 0 mm 1 m/s 771 mmHg 48%
    03:00 -3°C° 0 mm 1 m/s 771 mmHg 48%
    04:00 -3°C° 0 mm 1 m/s 771 mmHg 48%
    05:00 -3°C° 0 mm 1 m/s 771 mmHg 47%
    06:00 -3°C° 0 mm 1 m/s 771 mmHg 46%
    07:00 -5°C° 0 mm 2 m/s 771 mmHg 46%
    08:00 -4°C° 0 mm 2 m/s 771 mmHg 42%
    09:00 -4°C° 0 mm 2 m/s 771 mmHg 38%
    10:00 -3°C° 0 mm 2 m/s 771 mmHg 33%
    11:00 -2°C° 0 mm 3 m/s 770 mmHg 31%
    12:00 -1°C° 0 mm 3 m/s 770 mmHg 28%
    13:00 -1°C° 0 mm 3 m/s 771 mmHg 27%
    14:00 -1°C° 0 mm 3 m/s 770 mmHg 28%
    15:00 0°C° 0 mm 3 m/s 769 mmHg 28%
    16:00 0°C° 0 mm 3 m/s 769 mmHg 28%
    17:00 -1°C° 0 mm 3 m/s 769 mmHg 31%
    18:00 -2°C° 0 mm 3 m/s 768 mmHg 34%
    19:00 -2°C° 0 mm 2 m/s 768 mmHg 37%
    20:00 -2°C° 0 mm 2 m/s 768 mmHg 37%
    21:00 -2°C° 0 mm 2 m/s 768 mmHg 37%
    22:00 -2°C° 0 mm 3 m/s 767 mmHg 37%
    23:00 -2°C° 0 mm 3 m/s 767 mmHg 37%

    Amanhã, 24 Fevereiro, Domingo

    Tempo Temperatura Precipitação Vento Pressão Humidade
    00:00 -2°C° 0 mm 3 m/s 767 mmHg 36%
    01:00 -2°C° 0 mm 3 m/s 767 mmHg 36%
    02:00 -2°C° 0 mm 3 m/s 767 mmHg 37%
    03:00 -1°C° 0 mm 3 m/s 766 mmHg 38%
    04:00 -1°C° 0 mm 3 m/s 766 mmHg 40%
    05:00 -2°C° 0 mm 3 m/s 766 mmHg 40%
    06:00 -2°C° 0 mm 3 m/s 766 mmHg 40%
    07:00 -2°C° 0 mm 3 m/s 765 mmHg 40%
    08:00 0°C° 0 mm 3 m/s 765 mmHg 38%
    09:00 +1°C° 0 mm 3 m/s 765 mmHg 36%
    10:00 +2°C° 0 mm 3 m/s 765 mmHg 34%
    11:00 +3°C° 0 mm 3 m/s 765 mmHg 35%
    12:00 +4°C° 0 mm 4 m/s 765 mmHg 36%
    13:00 +6°C° 0 mm 4 m/s 765 mmHg 38%
    14:00 +5°C° 0 mm 3 m/s 765 mmHg 43%
    15:00 +5°C° 0 mm 3 m/s 764 mmHg 48%
    16:00 +4°C° 0 mm 3 m/s 764 mmHg 53%
    17:00 +3°C° 0 mm 3 m/s 764 mmHg 56%
    18:00 +2°C° 0 mm 3 m/s 764 mmHg 59%
    19:00 +1°C° 0 mm 3 m/s 764 mmHg 61%
    20:00 +1°C° 0 mm 3 m/s 764 mmHg 63%
    21:00 +1°C° 0 mm 3 m/s 764 mmHg 65%
    22:00 +1°C° 0 mm 3 m/s 764 mmHg 66%
    23:00 0°C° 0 mm 3 m/s 764 mmHg 71%

    Depois de amanhã, 25 Fevereiro, Segunda-feira

    Tempo Temperatura Precipitação Vento Pressão Humidade
    00:00 0°C° 0 mm 3 m/s 764 mmHg 76%
    01:00 0°C° 0 mm 3 m/s 764 mmHg 80%
    02:00 0°C° 0 mm 3 m/s 763 mmHg 85%
    03:00 0°C° 0 mm 3 m/s 763 mmHg 89%
    04:00 0°C° 0 mm 3 m/s 763 mmHg 93%
    05:00 0°C° 0 mm 3 m/s 763 mmHg 94%
    06:00 0°C° 0 mm 3 m/s 763 mmHg 95%
    07:00 0°C° 0 mm 3 m/s 763 mmHg 96%
    08:00 +1°C° 0 mm 3 m/s 763 mmHg 95%
    09:00 +2°C° 0 mm 3 m/s 764 mmHg 93%
    10:00 +3°C° 0 mm 4 m/s 764 mmHg 91%
    11:00 +4°C° 0 mm 4 m/s 764 mmHg 85%
    12:00 +5°C° 0 mm 4 m/s 763 mmHg 78%
    13:00 +8°C° 0 mm 3 m/s 763 mmHg 72%
    14:00 +7°C° 0 mm 3 m/s 763 mmHg 72%
    15:00 +7°C° 0 mm 3 m/s 763 mmHg 72%
    16:00 +7°C° 0 mm 3 m/s 763 mmHg 72%
    17:00 +5°C° 0 mm 3 m/s 763 mmHg 78%
    18:00 +3°C° 0 mm 3 m/s 763 mmHg 84%
    19:00 +2°C° 0 mm 3 m/s 762 mmHg 89%
    20:00 +2°C° 0 mm 3 m/s 762 mmHg 91%
    21:00 +2°C° 0 mm 3 m/s 762 mmHg 93%
    22:00 +1°C° 0 mm 3 m/s 762 mmHg 94%
    23:00 +2°C° 0 mm 3 m/s 761 mmHg 95%

    26 Fevereiro, Terça-feira

    Tempo Temperatura Precipitação Vento Pressão Humidade
    00:00 +2°C° 0 mm 3 m/s 761 mmHg 96%
    01:00 +2°C° 0 mm 3 m/s 761 mmHg 96%
    02:00 +3°C° 0 mm 4 m/s 760 mmHg 96%
    03:00 +3°C° 0 mm 4 m/s 760 mmHg 95%
    04:00 +3°C° 0 mm 5 m/s 759 mmHg 94%
    05:00 +3°C° 0 mm 5 m/s 759 mmHg 94%
    06:00 +2°C° 0 mm 5 m/s 759 mmHg 93%
    07:00 +2°C° 0 mm 5 m/s 759 mmHg 93%
    08:00 +3°C° 0 mm 5 m/s 759 mmHg 90%
    09:00 +3°C° 0 mm 5 m/s 759 mmHg 87%
    10:00 +5°C° 0 mm 5 m/s 759 mmHg 83%
    11:00 +6°C° 0 mm 5 m/s 760 mmHg 79%
    12:00 +6°C° 0 mm 4 m/s 760 mmHg 76%
    13:00 +7°C° 0 mm 4 m/s 760 mmHg 72%
    14:00 +7°C° 0 mm 4 m/s 760 mmHg 70%
    15:00 +8°C° 0 mm 3 m/s 760 mmHg 68%
    16:00 +8°C° 0 mm 3 m/s 760 mmHg 66%
    17:00 +7°C° 0 mm 3 m/s 760 mmHg 72%
    18:00 +5°C° 0 mm 3 m/s 761 mmHg 79%
    19:00 +4°C° 0 mm 2 m/s 761 mmHg 85%
    20:00 +4°C° 0 mm 2 m/s 761 mmHg 85%
    21:00 +3°C° 0 mm 2 m/s 761 mmHg 86%
    22:00 +4°C° 0 mm 1 m/s 761 mmHg 86%
    23:00 +4°C° 0 mm 1 m/s 761 mmHg 86%

    27 Fevereiro, Quarta-feira

    Tempo Temperatura Precipitação Vento Pressão Humidade
    00:00 +4°C° 0 mm 1 m/s 761 mmHg 86%
    01:00 +3°C° 0 mm 1 m/s 760 mmHg 87%
    02:00 +2°C° 0 mm 2 m/s 760 mmHg 89%
    03:00 +2°C° 0 mm 2 m/s 760 mmHg 91%
    04:00 +2°C° 0 mm 2 m/s 759 mmHg 93%
    05:00 +2°C° 0 mm 2 m/s 759 mmHg 92%
    06:00 +1°C° 0 mm 3 m/s 758 mmHg 92%
    07:00 +1°C° 0 mm 3 m/s 758 mmHg 92%
    08:00 +2°C° 0 mm 3 m/s 758 mmHg 86%
    09:00 +4°C° 0 mm 4 m/s 758 mmHg 80%
    10:00 +5°C° 0 mm 4 m/s 757 mmHg 74%
    11:00 +6°C° 0 mm 4 m/s 757 mmHg 72%
    12:00 +7°C° 0 mm 4 m/s 757 mmHg 69%
    13:00 +8°C° 0 mm 4 m/s 757 mmHg 66%
    14:00 +8°C° 0 mm 4 m/s 756 mmHg 68%
    15:00 +8°C° 0 mm 4 m/s 756 mmHg 70%
    16:00 +8°C° 0 mm 4 m/s 755 mmHg 72%
    17:00 +8°C° 0 mm 3 m/s 755 mmHg 78%
    18:00 +5°C° 0 mm 3 m/s 754 mmHg 84%
    19:00 +5°C° 0 mm 2 m/s 754 mmHg 90%
    20:00 +4°C° 0 mm 3 m/s 753 mmHg 89%
    21:00 +4°C° 0 mm 3 m/s 752 mmHg 89%
    22:00 +4°C° 0 mm 3 m/s 752 mmHg 88%
    23:00 +4°C° 0 mm 3 m/s 751 mmHg 88%

    28 Fevereiro, Quinta-feira

    Tempo Temperatura Precipitação Vento Pressão Humidade
    00:00 +4°C° 0 mm 4 m/s 750 mmHg 87%
    01:00 +4°C° 0 mm 4 m/s 749 mmHg 87%
    02:00 +4°C° 0 mm 4 m/s 749 mmHg 84%
    03:00 +4°C° 0 mm 4 m/s 748 mmHg 81%
    04:00 +3°C° 0 mm 5 m/s 747 mmHg 78%
    05:00 +3°C° 0 mm 5 m/s 747 mmHg 82%
    06:00 +3°C° 0 mm 6 m/s 746 mmHg 87%
    07:00 +2°C° 0 mm 6 m/s 746 mmHg 91%
    08:00 +3°C° 0 mm 7 m/s 746 mmHg 88%
    09:00 +3°C° 0 mm 7 m/s 746 mmHg 85%
    10:00 +4°C° 0 mm 8 m/s 746 mmHg 82%
    11:00 +4°C° 0 mm 8 m/s 746 mmHg 76%
    12:00 +5°C° 0 mm 9 m/s 746 mmHg 70%
    13:00 +6°C° 0 mm 9 m/s 746 mmHg 64%
    14:00 +6°C° 0 mm 9 m/s 746 mmHg 64%
    15:00 +5°C° 0 mm 9 m/s 746 mmHg 65%
    16:00 +5°C° 0 mm 9 m/s 746 mmHg 65%
    17:00 +4°C° 0 mm 8 m/s 746 mmHg 68%
    18:00 +3°C° 0 mm 7 m/s 747 mmHg 71%
    19:00 +3°C° 0 mm 6 m/s 747 mmHg 75%
    20:00 +2°C° 0 mm 6 m/s 747 mmHg 76%
    21:00 +2°C° 0 mm 5 m/s 747 mmHg 78%
    22:00 +2°C° 0 mm 5 m/s 748 mmHg 79%
    23:00 +1°C° 0 mm 5 m/s 748 mmHg 81%
    Mostrar mais